Flag for Canada Weather past 2 weeks in Strathcona County, Alberta, Canada

Now
10 °F

Ice fog.


Feels Like: -5 °F
Forecast: 0 / 6 °F
Wind: 14 mph from Northeast

Location: Edmonton Municipal

Current Time: Jan 30, 2015 at 9:09:13 PM

Latest Report: Jan 30, 2015 at 8:00 PM


Visibility: 1 mi

Pressure: 30.51 "Hg

Humidity: 79%

Dew point: 5 °F

Location of Strathcona CountyLocation

Historic Weather in Strathcona County — Graph

°F

Strathcona County temperature yesterday

Maximum temperature yesterday: 28 °F (at 3:00 PM)
Minimum temperature yesterday: 16 °F (at 3:00 AM)
Average temperature yesterday: 23 °F

Past Weeks' High & Low Weather Summary

 TemperatureHumidityPressure
High50 °F (Jan 22, 3:00 PM)100% (Jan 27, 5:00 AM)30.51 "Hg (Jan 27, 5:00 AM)
Low10 °F (Jan 30, 7:52 PM)43% (Jan 22, 3:00 PM)29.43 "Hg (Jan 16, 10:58 AM)
Average32 °F72%29.96 "Hg
* Reported Jan 15 7:00 PM — Jan 30 7:52 PM, Strathcona County, Weather by CustomWeather, © 2014

Note: Actual official high and low records may vary slightly from our data, if they occured in-between our weather recording intervals... More about our weather records

Advertising

Strathcona County weather history for previous 24 hours

 ConditionsComfort  
Time TempWeatherWind HumidityBarometerVisibility
7:52 PM
Jan 30
10 °FMostly cloudy.12 mph79%30.37 "Hg1 mi
7:00 PM12 °FLight snow. Overcast.12 mph79%30.50 "Hg1 mi
6:48 PM12 °FLight snow. Ice fog.13 mph79%30.36 "Hg1 mi
6:00 PM12 °FLight snow. Ice fog.13 mph85%30.46 "Hg1 mi
5:00 PM14 °FLight snow. Ice fog.13 mph85%30.45 "Hg1 mi
4:00 PM16 °FLight snow. Ice fog.14 mph79%30.42 "Hg1 mi
3:56 PM16 °FLight snow. Ice fog.16 mph79%30.29 "Hg1 mi
3:00 PM16 °FOvercast.9 mph79%30.42 "Hg6 mi
2:00 PM18 °FLow clouds.9 mph79%30.41 "Hg9 mi
1:01 PM18 °FLow clouds.13 mph79%30.31 "Hg9 mi
12:00 PM19 °FOvercast.13 mph79%30.42 "Hg9 mi
11:00 AM21 °FOvercast.9 mph80%30.41 "Hg9 mi
10:00 AM23 °FMostly cloudy.9 mph80%30.40 "Hg9 mi
9:00 AM23 °FLow clouds.9 mph86%30.37 "Hg6 mi
8:00 AM21 °FPassing clouds.5 mph86%30.35 "Hg9 mi
7:00 AM23 °FPassing clouds.No wind86%30.33 "Hg9 mi
6:00 AM25 °FClear.6 mph80%30.33 "Hg9 mi
5:00 AM23 °FClear.2 mph86%30.31 "Hg9 mi
4:00 AM23 °FClear.3 mph86%30.30 "Hg9 mi
3:00 AM21 °FClear.2 mph86%30.30 "Hg9 mi
2:00 AM25 °FClear.2 mph80%30.28 "Hg9 mi
1:00 AM25 °FClear.2 mph80%30.29 "Hg9 mi
12:00 AM25 °FPassing clouds.3 mph80%30.27 "Hg7 mi
11:00 PM
Jan 29
23 °FPassing clouds.3 mph93%30.27 "Hg4 mi
10:00 PM25 °FPassing clouds.5 mph86%30.28 "Hg4 mi
9:00 PM25 °FClear.5 mph86%30.28 "Hg4 mi
Weather by CustomWeather, © 2014

See weather overviewHow to use our weather pages